Location: San Vito
(41.8833°N, 12.9833°E)
Time: 23:55:36
(UTC+00:00)

STARLINK-55 - Pass Details

Date: 17 November 2019
Orbit: 529 x 531 km, 53.0° (Epoch: 08 December)

Event Time Altitude Azimuth Distance (km) Brightness Sun altitude
Exits shadow 05:21:08 - 256° (WSW) 2,159 6.1 -7.5°
Reaches altitude 10° 05:22:09 10° 260° (W) 1,771 5.7 -7.3°
Maximum altitude 05:25:56 40° 332° (NNW) 793 4.1 -6.6°
Drops below altitude 10° 05:29:46 10° 42° (NE) 1,792 6.6 -6.0°
Sets 05:32:06 0° 50° (NE) 2,699 7.6 -5.5°
